Year,Month,Day,Hour,Minute,Value (Times are PST for temperature in C)
2008,09,22,00,00,9.60
2008,09,22,00,01,9.70
2008,09,22,00,02,9.70
2008,09,22,00,03,9.70
2008,09,22,00,04,9.70
2008,09,22,00,05,9.70
2008,09,22,00,06,9.70
2008,09,22,00,07,9.60
2008,09,22,00,08,9.60
2008,09,22,00,09,9.60
2008,09,22,00,10,9.60
2008,09,22,00,11,9.50
2008,09,22,00,12,9.40
2008,09,22,00,13,9.40
2008,09,22,00,14,9.40
2008,09,22,00,15,9.30
2008,09,22,00,16,9.20
2008,09,22,00,17,9.20
2008,09,22,00,18,9.10
2008,09,22,00,19,9.10
2008,09,22,00,20,9.00
2008,09,22,00,21,9.00
2008,09,22,00,22,8.90
2008,09,22,00,23,8.90
2008,09,22,00,24,8.90
2008,09,22,00,25,8.90
2008,09,22,00,26,8.80
2008,09,22,00,27,8.80
2008,09,22,00,28,8.80
2008,09,22,00,29,8.80
2008,09,22,00,30,8.80
2008,09,22,00,31,8.80
2008,09,22,00,32,8.80
2008,09,22,00,33,8.80
2008,09,22,00,34,8.80
2008,09,22,00,35,8.80
2008,09,22,00,36,8.90
2008,09,22,00,37,9.00
2008,09,22,00,38,9.20
2008,09,22,00,39,9.30
2008,09,22,00,40,9.30
2008,09,22,00,41,9.40
2008,09,22,00,42,9.60
2008,09,22,00,43,9.60
2008,09,22,00,44,9.70
2008,09,22,00,45,9.70
2008,09,22,00,46,9.80
2008,09,22,00,47,9.90
2008,09,22,00,48,9.90
2008,09,22,00,49,10.00
2008,09,22,00,50,10.00
2008,09,22,00,51,10.00
2008,09,22,00,52,10.10
2008,09,22,00,53,10.00
2008,09,22,00,54,10.00
2008,09,22,00,55,10.00
2008,09,22,00,56,10.00
2008,09,22,00,57,10.00
2008,09,22,00,58,10.10
2008,09,22,00,59,10.10
2008,09,22,01,00,10.10
2008,09,22,01,01,10.10
2008,09,22,01,02,10.10
2008,09,22,01,03,10.10
2008,09,22,01,04,10.00
2008,09,22,01,05,10.00
2008,09,22,01,06,10.00
2008,09,22,01,07,10.00
2008,09,22,01,08,9.90
2008,09,22,01,09,9.90
2008,09,22,01,10,9.90
2008,09,22,01,11,9.90
2008,09,22,01,12,9.90
2008,09,22,01,13,9.90
2008,09,22,01,14,9.90
2008,09,22,01,15,9.80
2008,09,22,01,16,9.80
2008,09,22,01,17,9.80
2008,09,22,01,18,9.80
2008,09,22,01,19,9.80
2008,09,22,01,20,9.70
2008,09,22,01,21,9.70
2008,09,22,01,22,9.70
2008,09,22,01,23,9.70
2008,09,22,01,24,9.70
2008,09,22,01,25,9.80
2008,09,22,01,26,9.80
2008,09,22,01,27,9.80
2008,09,22,01,28,9.80
2008,09,22,01,29,9.80
2008,09,22,01,30,9.80
2008,09,22,01,31,9.80
2008,09,22,01,32,9.80
2008,09,22,01,33,9.80
2008,09,22,01,34,9.80
2008,09,22,01,35,9.80
2008,09,22,01,36,9.70
2008,09,22,01,37,9.80
2008,09,22,01,38,9.80
2008,09,22,01,39,9.80
2008,09,22,01,40,9.80
2008,09,22,01,41,9.80
2008,09,22,01,42,9.80
2008,09,22,01,43,9.80
2008,09,22,01,44,9.80
2008,09,22,01,45,9.80
2008,09,22,01,46,9.80
2008,09,22,01,47,9.80
2008,09,22,01,48,9.80
2008,09,22,01,49,9.80
2008,09,22,01,50,9.80
2008,09,22,01,51,9.80
2008,09,22,01,52,9.80
2008,09,22,01,53,9.80
2008,09,22,01,54,9.80
2008,09,22,01,55,9.90
2008,09,22,01,56,9.90
2008,09,22,01,57,9.90
2008,09,22,01,58,9.90
2008,09,22,01,59,9.90
2008,09,22,02,00,9.90
2008,09,22,02,01,9.90
2008,09,22,02,02,9.90
2008,09,22,02,03,9.90
2008,09,22,02,04,9.90
2008,09,22,02,05,9.90
2008,09,22,02,06,9.90
2008,09,22,02,07,9.90
2008,09,22,02,08,9.90
2008,09,22,02,09,9.90
2008,09,22,02,10,9.90
2008,09,22,02,11,9.90
2008,09,22,02,12,9.90
2008,09,22,02,13,9.90
2008,09,22,02,14,9.90
2008,09,22,02,15,9.90
2008,09,22,02,16,9.90
2008,09,22,02,17,9.90
2008,09,22,02,18,9.90
2008,09,22,02,19,9.90
2008,09,22,02,20,9.90
2008,09,22,02,21,9.90
2008,09,22,02,22,9.90
2008,09,22,02,23,9.90
2008,09,22,02,24,9.90
2008,09,22,02,25,9.90
2008,09,22,02,26,9.90
2008,09,22,02,27,9.90
2008,09,22,02,28,9.90
2008,09,22,02,29,9.90
2008,09,22,02,30,9.90
2008,09,22,02,31,9.90
2008,09,22,02,32,9.90
2008,09,22,02,33,9.90
2008,09,22,02,34,9.90
2008,09,22,02,35,9.90
2008,09,22,02,36,9.90
2008,09,22,02,37,9.90
2008,09,22,02,38,9.90
2008,09,22,02,39,9.90
2008,09,22,02,40,9.90
2008,09,22,02,41,9.90
2008,09,22,02,42,9.90
2008,09,22,02,43,9.90
2008,09,22,02,44,9.90
2008,09,22,02,45,9.90
2008,09,22,02,46,9.90
2008,09,22,02,47,9.90
2008,09,22,02,48,9.90
2008,09,22,02,49,9.90
2008,09,22,02,50,9.90
2008,09,22,02,51,9.90
2008,09,22,02,52,9.90
2008,09,22,02,53,9.90
2008,09,22,02,54,9.90
2008,09,22,02,55,9.90
2008,09,22,02,56,9.90
2008,09,22,02,57,9.90
2008,09,22,02,58,10.00
2008,09,22,02,59,9.90
2008,09,22,03,00,9.90
2008,09,22,03,01,9.90
2008,09,22,03,02,9.90
2008,09,22,03,03,9.90
2008,09,22,03,04,9.90
2008,09,22,03,05,9.90
2008,09,22,03,06,9.90
2008,09,22,03,07,9.90
2008,09,22,03,08,9.90
2008,09,22,03,09,9.90
2008,09,22,03,10,9.90
2008,09,22,03,11,9.90
2008,09,22,03,12,9.90
2008,09,22,03,13,9.90
2008,09,22,03,14,9.90
2008,09,22,03,15,9.90
2008,09,22,03,16,9.90
2008,09,22,03,17,9.90
2008,09,22,03,18,9.90
2008,09,22,03,19,9.90
2008,09,22,03,20,9.90
2008,09,22,03,21,9.90
2008,09,22,03,22,9.90
2008,09,22,03,23,9.90
2008,09,22,03,24,9.90
2008,09,22,03,25,9.90
2008,09,22,03,26,9.90
2008,09,22,03,27,9.90
2008,09,22,03,28,9.90
2008,09,22,03,29,9.90
2008,09,22,03,30,9.90
2008,09,22,03,31,9.90
2008,09,22,03,32,9.90
2008,09,22,03,33,9.90
2008,09,22,03,34,9.90
2008,09,22,03,35,9.90
2008,09,22,03,36,9.90
2008,09,22,03,37,9.90
2008,09,22,03,38,9.90
2008,09,22,03,39,9.90
2008,09,22,03,40,9.90
2008,09,22,03,41,9.90
2008,09,22,03,42,9.90
2008,09,22,03,43,9.90
2008,09,22,03,44,9.90
2008,09,22,03,45,9.90
2008,09,22,03,46,9.90
2008,09,22,03,47,9.90
2008,09,22,03,48,9.90
2008,09,22,03,49,9.90
2008,09,22,03,50,9.90
2008,09,22,03,51,9.80
2008,09,22,03,52,9.80
2008,09,22,03,53,9.80
2008,09,22,03,54,9.80
2008,09,22,03,55,9.80
2008,09,22,03,56,9.80
2008,09,22,03,57,9.80
2008,09,22,03,58,9.80
2008,09,22,03,59,9.80
2008,09,22,04,00,9.80
2008,09,22,04,01,9.80
2008,09,22,04,02,9.80
2008,09,22,04,03,9.80
2008,09,22,04,04,9.80
2008,09,22,04,16,9.70
2008,09,22,04,32,9.50
2008,09,22,04,41,9.40
2008,09,22,04,56,9.60
2008,09,22,05,09,9.40
2008,09,22,05,22,9.20
2008,09,22,05,37,9.20
2008,09,22,05,53,9.30
2008,09,22,06,02,9.30
2008,09,22,06,22,9.10
2008,09,22,06,42,8.80
2008,09,22,07,00,8.80
2008,09,22,07,14,8.70
2008,09,22,07,33,8.60
2008,09,22,07,52,8.70
2008,09,22,08,12,9.20
2008,09,22,08,19,9.30
2008,09,22,08,39,9.90
2008,09,22,08,44,10.00
2008,09,22,08,45,10.10
2008,09,22,08,46,10.10
2008,09,22,08,47,10.10
2008,09,22,08,48,10.10
2008,09,22,08,49,10.20
2008,09,22,08,50,10.20
2008,09,22,08,51,10.20
2008,09,22,08,52,10.20
2008,09,22,08,53,10.20
2008,09,22,08,54,10.20
2008,09,22,08,55,10.30
2008,09,22,08,56,10.30
2008,09,22,08,57,10.30
2008,09,22,08,58,10.30
2008,09,22,08,59,10.40
2008,09,22,09,00,10.40
2008,09,22,09,01,10.40
2008,09,22,09,02,10.40
2008,09,22,09,03,10.40
2008,09,22,09,04,10.40
2008,09,22,09,05,10.40
2008,09,22,09,06,10.40
2008,09,22,09,07,10.40
2008,09,22,09,08,10.40
2008,09,22,09,09,10.50
2008,09,22,09,10,10.50
2008,09,22,09,11,10.40
2008,09,22,09,12,10.40
2008,09,22,09,13,10.40
2008,09,22,09,14,10.40
2008,09,22,09,15,10.40
2008,09,22,09,16,10.40
2008,09,22,09,17,10.40
2008,09,22,09,18,10.40
2008,09,22,09,19,10.40
2008,09,22,09,20,10.40
2008,09,22,09,21,10.40
2008,09,22,09,22,10.40
2008,09,22,09,23,10.40
2008,09,22,09,24,10.40
2008,09,22,09,25,10.40
2008,09,22,09,26,10.30
2008,09,22,09,27,10.30
2008,09,22,09,28,10.30
2008,09,22,09,29,10.30
2008,09,22,09,30,10.30
2008,09,22,09,31,10.20
2008,09,22,09,32,10.20
2008,09,22,09,33,10.20
2008,09,22,09,34,10.20
2008,09,22,09,35,10.20
2008,09,22,09,36,10.20
2008,09,22,09,37,10.20
2008,09,22,09,38,10.20
2008,09,22,09,39,10.20
2008,09,22,09,40,10.20
2008,09,22,09,41,10.20
2008,09,22,09,42,10.20
2008,09,22,09,43,10.20
2008,09,22,09,44,10.20
2008,09,22,09,45,10.20
2008,09,22,09,46,10.20
2008,09,22,09,47,10.20
2008,09,22,09,48,10.30
2008,09,22,09,49,10.30
2008,09,22,09,50,10.30
2008,09,22,09,51,10.30
2008,09,22,09,52,10.30
2008,09,22,09,53,10.30
2008,09,22,09,54,10.40
2008,09,22,09,55,10.40
2008,09,22,09,56,10.40
2008,09,22,09,57,10.50
2008,09,22,09,58,10.50
2008,09,22,09,59,10.50
2008,09,22,10,00,10.60
2008,09,22,10,01,10.60
2008,09,22,10,02,10.70
2008,09,22,10,03,10.70
2008,09,22,10,04,10.70
2008,09,22,10,05,10.80
2008,09,22,10,06,10.80
2008,09,22,10,07,10.80
2008,09,22,10,08,10.80
2008,09,22,10,09,10.80
2008,09,22,10,10,10.80
2008,09,22,10,11,10.80
2008,09,22,10,12,10.90
2008,09,22,10,13,10.90
2008,09,22,10,14,10.90
2008,09,22,10,15,10.90
2008,09,22,10,16,10.90
2008,09,22,10,17,11.00
2008,09,22,10,18,11.10
2008,09,22,10,19,11.10
2008,09,22,10,20,11.20
2008,09,22,10,21,11.20
2008,09,22,10,22,11.30
2008,09,22,10,23,11.30
2008,09,22,10,24,11.30
2008,09,22,10,25,11.40
2008,09,22,10,26,11.50
2008,09,22,10,27,11.50
2008,09,22,10,28,11.60
2008,09,22,10,29,11.60
2008,09,22,10,30,11.70
2008,09,22,10,31,11.70
2008,09,22,10,32,11.70
2008,09,22,10,33,11.70
2008,09,22,10,34,11.70
2008,09,22,10,35,11.80
2008,09,22,10,36,11.80
2008,09,22,10,37,11.80
2008,09,22,10,38,11.80
2008,09,22,10,39,11.80
2008,09,22,10,40,11.80
2008,09,22,10,41,11.80
2008,09,22,10,42,11.80
2008,09,22,10,43,11.80
2008,09,22,10,44,11.80
2008,09,22,10,45,11.80
2008,09,22,10,46,11.90
2008,09,22,10,47,11.90
2008,09,22,10,48,11.90
2008,09,22,10,49,12.00
2008,09,22,10,50,12.00
2008,09,22,10,51,12.10
2008,09,22,10,52,12.10
2008,09,22,10,53,12.10
2008,09,22,10,54,12.10
2008,09,22,10,55,12.10
2008,09,22,10,56,12.10
2008,09,22,10,57,12.10
2008,09,22,10,58,12.10
2008,09,22,10,59,12.10
2008,09,22,11,00,12.00
2008,09,22,11,01,12.00
2008,09,22,11,02,11.90
2008,09,22,11,03,11.90
2008,09,22,11,04,11.90
2008,09,22,11,05,11.80
2008,09,22,11,06,11.80
2008,09,22,11,07,11.80
2008,09,22,11,08,11.90
2008,09,22,11,09,11.90
2008,09,22,11,10,12.00
2008,09,22,11,11,12.00
2008,09,22,11,12,12.10
2008,09,22,11,13,12.30
2008,09,22,11,14,12.40
2008,09,22,11,15,12.40
2008,09,22,11,16,12.50
2008,09,22,11,17,12.60
2008,09,22,11,18,12.70
2008,09,22,11,19,12.70
2008,09,22,11,20,12.80
2008,09,22,11,21,12.80
2008,09,22,11,22,12.80
2008,09,22,11,23,12.80
2008,09,22,11,24,12.70
2008,09,22,11,25,12.60
2008,09,22,11,26,12.60
2008,09,22,11,27,12.60
2008,09,22,11,28,12.60
2008,09,22,11,29,12.60
2008,09,22,11,30,12.70
2008,09,22,11,31,12.70
2008,09,22,11,32,12.80
2008,09,22,11,33,12.90
2008,09,22,11,34,12.90
2008,09,22,11,35,12.90
2008,09,22,11,36,12.90
2008,09,22,11,37,12.90
2008,09,22,11,38,12.90
2008,09,22,11,39,12.90
2008,09,22,11,40,12.90
2008,09,22,11,41,13.00
2008,09,22,11,42,13.00
2008,09,22,11,43,13.10
2008,09,22,11,44,13.20
2008,09,22,11,45,13.30
2008,09,22,11,46,13.40
2008,09,22,11,47,13.50
2008,09,22,11,48,13.60
2008,09,22,11,49,13.70
2008,09,22,11,50,13.70
2008,09,22,11,51,13.70
2008,09,22,11,52,13.80
2008,09,22,11,53,13.80
2008,09,22,11,54,13.80
2008,09,22,11,55,13.80
2008,09,22,11,56,13.80
2008,09,22,11,57,13.80
2008,09,22,11,58,13.80
2008,09,22,11,59,13.70
2008,09,22,12,00,13.70
2008,09,22,12,01,13.70
2008,09,22,12,02,13.70
2008,09,22,12,03,13.80
2008,09,22,12,04,13.80
2008,09,22,12,05,13.80
2008,09,22,12,06,13.80
2008,09,22,12,07,13.80
2008,09,22,12,08,13.80
2008,09,22,12,09,13.80
2008,09,22,12,10,13.80
2008,09,22,12,11,13.80
2008,09,22,12,12,13.90
2008,09,22,12,13,13.90
2008,09,22,12,14,13.90
2008,09,22,12,15,13.90
2008,09,22,12,16,13.90
2008,09,22,12,17,14.00
2008,09,22,12,18,14.00
2008,09,22,12,19,14.10
2008,09,22,12,20,14.20
2008,09,22,12,21,14.30
2008,09,22,12,22,14.30
2008,09,22,12,23,14.40
2008,09,22,12,24,14.40
2008,09,22,12,25,14.30
2008,09,22,12,26,14.30
2008,09,22,12,27,14.30
2008,09,22,12,28,14.20
2008,09,22,12,29,14.20
2008,09,22,12,30,14.20
2008,09,22,12,31,14.20
2008,09,22,12,32,14.20
2008,09,22,12,33,14.20
2008,09,22,12,34,14.20
2008,09,22,12,35,14.30
2008,09,22,12,36,14.30
2008,09,22,12,37,14.40
2008,09,22,12,38,14.40
2008,09,22,12,39,14.40
2008,09,22,12,40,14.50
2008,09,22,12,41,14.50
2008,09,22,12,42,14.50
2008,09,22,12,43,14.50
2008,09,22,12,44,14.50
2008,09,22,12,45,14.50
2008,09,22,12,46,14.60
2008,09,22,12,47,14.60
2008,09,22,12,48,14.60
2008,09,22,12,49,14.60
2008,09,22,12,50,14.50
2008,09,22,12,51,14.60
2008,09,22,12,52,14.60
2008,09,22,12,53,14.60
2008,09,22,12,54,14.60
2008,09,22,12,55,14.60
2008,09,22,12,56,14.70
2008,09,22,12,57,14.70
2008,09,22,12,58,14.80
2008,09,22,12,59,14.70
2008,09,22,13,00,14.70
2008,09,22,13,01,14.70
2008,09,22,13,02,14.80
2008,09,22,13,03,14.80
2008,09,22,13,04,14.90
2008,09,22,13,05,14.90
2008,09,22,13,06,14.80
2008,09,22,13,07,14.70
2008,09,22,13,08,14.70
2008,09,22,13,09,14.70
2008,09,22,13,10,14.70
2008,09,22,13,11,14.60
2008,09,22,13,12,14.60
2008,09,22,13,13,14.50
2008,09,22,13,14,14.50
2008,09,22,13,15,14.60
2008,09,22,13,16,14.70
2008,09,22,13,17,14.70
2008,09,22,13,18,14.80
2008,09,22,13,19,14.80
2008,09,22,13,20,14.80
2008,09,22,13,21,14.80
2008,09,22,13,22,14.90
2008,09,22,13,23,14.80
2008,09,22,13,24,14.70
2008,09,22,13,25,14.70
2008,09,22,13,26,14.70
2008,09,22,13,27,14.70
2008,09,22,13,28,14.70
2008,09,22,13,29,14.80
2008,09,22,13,30,14.90
2008,09,22,13,31,15.00
2008,09,22,13,32,15.00
2008,09,22,13,33,15.00
2008,09,22,13,34,15.00
2008,09,22,13,35,15.00
2008,09,22,13,36,15.00
2008,09,22,13,37,15.00
2008,09,22,13,38,15.20
2008,09,22,13,39,15.10
2008,09,22,13,40,15.00
2008,09,22,13,41,15.10
2008,09,22,13,42,15.10
2008,09,22,13,43,15.00
2008,09,22,13,44,15.00
2008,09,22,13,45,15.00
2008,09,22,13,46,14.80
2008,09,22,13,47,14.80
2008,09,22,13,48,14.70
2008,09,22,13,49,14.70
2008,09,22,13,50,14.70
2008,09,22,13,51,14.80
2008,09,22,13,52,14.80
2008,09,22,13,53,14.80
2008,09,22,13,54,14.90
2008,09,22,13,55,14.90
2008,09,22,13,56,14.90
2008,09,22,13,57,14.90
2008,09,22,13,58,14.90
2008,09,22,13,59,14.90
2008,09,22,14,00,15.00
2008,09,22,14,01,15.00
2008,09,22,14,02,15.00
2008,09,22,14,03,15.00
2008,09,22,14,04,15.00
2008,09,22,14,05,15.00
2008,09,22,14,06,15.00
2008,09,22,14,07,15.00
2008,09,22,14,08,15.00
2008,09,22,14,09,15.00
2008,09,22,14,10,15.00
2008,09,22,14,11,15.10
2008,09,22,14,12,15.20
2008,09,22,14,13,15.30
2008,09,22,14,14,15.20
2008,09,22,14,15,15.20
2008,09,22,14,16,15.20
2008,09,22,14,17,15.20
2008,09,22,14,18,15.30
2008,09,22,14,19,15.30
2008,09,22,14,20,15.30
2008,09,22,14,21,15.30
2008,09,22,14,22,15.30
2008,09,22,14,23,15.30
2008,09,22,14,24,15.30
2008,09,22,14,25,15.30
2008,09,22,14,26,15.20
2008,09,22,14,27,15.10
2008,09,22,14,28,15.00
2008,09,22,14,29,15.00
2008,09,22,14,30,15.00
2008,09,22,14,31,15.00
2008,09,22,14,32,15.00
2008,09,22,14,33,15.00
2008,09,22,14,34,15.00
2008,09,22,14,35,15.00
2008,09,22,14,36,15.00
2008,09,22,14,37,14.90
2008,09,22,14,38,14.80
2008,09,22,14,39,14.70
2008,09,22,14,40,14.70
2008,09,22,14,41,14.70
2008,09,22,14,42,14.80
2008,09,22,14,43,14.80
2008,09,22,14,44,14.80
2008,09,22,14,45,14.80
2008,09,22,14,46,14.70
2008,09,22,14,47,14.70
2008,09,22,14,48,14.70
2008,09,22,14,49,14.80
2008,09,22,14,50,14.90
2008,09,22,14,51,14.90
2008,09,22,14,52,14.70
2008,09,22,14,53,14.70
2008,09,22,14,54,14.80
2008,09,22,14,55,14.90
2008,09,22,14,56,14.90
2008,09,22,14,57,15.00
2008,09,22,14,58,15.00
2008,09,22,14,59,15.00
2008,09,22,15,00,15.00
2008,09,22,15,01,15.00
2008,09,22,15,02,15.00
2008,09,22,15,03,15.00
2008,09,22,15,04,15.10
2008,09,22,15,05,15.10
2008,09,22,15,06,15.10
2008,09,22,15,07,15.00
2008,09,22,15,08,15.00
2008,09,22,15,09,15.00
2008,09,22,15,10,15.00
2008,09,22,15,11,15.00
2008,09,22,15,12,15.00
2008,09,22,15,13,15.00
2008,09,22,15,14,14.90
2008,09,22,15,15,14.80
2008,09,22,15,16,14.70
2008,09,22,15,17,14.70
2008,09,22,15,18,14.70
2008,09,22,15,19,14.70
2008,09,22,15,20,14.70
2008,09,22,15,21,14.70
2008,09,22,15,22,14.70
2008,09,22,15,23,14.60
2008,09,22,15,24,14.60
2008,09,22,15,25,14.40
2008,09,22,15,26,14.40
2008,09,22,15,27,14.40
2008,09,22,15,28,14.40
2008,09,22,15,29,14.40
2008,09,22,15,30,14.40
2008,09,22,15,31,14.40
2008,09,22,15,32,14.40
2008,09,22,15,33,14.50
2008,09,22,15,34,14.50
2008,09,22,15,35,14.50
2008,09,22,15,36,14.40
2008,09,22,15,37,14.40
2008,09,22,15,38,14.40
2008,09,22,15,39,14.40
2008,09,22,15,40,14.40
2008,09,22,15,41,14.40
2008,09,22,15,42,14.40
2008,09,22,15,43,14.30
2008,09,22,15,44,14.30
2008,09,22,15,45,14.30
2008,09,22,15,46,14.20
2008,09,22,15,47,14.20
2008,09,22,15,48,14.20
2008,09,22,15,49,14.10
2008,09,22,15,50,14.00
2008,09,22,15,51,14.00
2008,09,22,15,52,14.00
2008,09,22,15,53,14.00
2008,09,22,15,54,14.00
2008,09,22,15,55,13.90
2008,09,22,15,56,13.90
2008,09,22,15,57,13.90
2008,09,22,15,58,13.90
2008,09,22,15,59,13.90
2008,09,22,16,00,13.90
2008,09,22,16,01,13.80
2008,09,22,16,02,13.80
2008,09,22,16,03,13.80
2008,09,22,16,04,13.80
2008,09,22,16,05,13.80
2008,09,22,16,06,13.80
2008,09,22,16,07,13.70
2008,09,22,16,08,13.70
2008,09,22,16,09,13.70
2008,09,22,16,10,13.70
2008,09,22,16,11,13.70
2008,09,22,16,12,13.70
2008,09,22,16,13,13.70
2008,09,22,16,14,13.60
2008,09,22,16,15,13.50
2008,09,22,16,16,13.50
2008,09,22,16,17,13.50
2008,09,22,16,18,13.40
2008,09,22,16,19,13.40
2008,09,22,16,20,13.40
2008,09,22,16,21,13.40
2008,09,22,16,22,13.40
2008,09,22,16,23,13.30
2008,09,22,16,24,13.30
2008,09,22,16,25,13.30
2008,09,22,16,26,13.30
2008,09,22,16,27,13.30
2008,09,22,16,28,13.30
2008,09,22,16,29,13.30
2008,09,22,16,30,13.30
2008,09,22,16,31,13.30
2008,09,22,16,32,13.30
2008,09,22,16,33,13.20
2008,09,22,16,34,13.20
2008,09,22,16,35,13.20
2008,09,22,16,36,13.20
2008,09,22,16,37,13.20
2008,09,22,16,38,13.20
2008,09,22,16,39,13.20
2008,09,22,16,40,13.10
2008,09,22,16,41,13.10
2008,09,22,16,42,13.10
2008,09,22,16,43,13.10
2008,09,22,16,44,13.10
2008,09,22,16,45,13.10
2008,09,22,16,46,13.00
2008,09,22,16,47,13.00
2008,09,22,16,48,13.00
2008,09,22,16,49,13.00
2008,09,22,16,50,13.00
2008,09,22,16,51,13.00
2008,09,22,16,52,13.00
2008,09,22,16,53,12.90
2008,09,22,16,54,12.90
2008,09,22,16,55,12.90
2008,09,22,16,56,12.90
2008,09,22,16,57,12.90
2008,09,22,16,58,12.90
2008,09,22,16,59,12.90
2008,09,22,17,00,12.90
2008,09,22,17,01,12.90
2008,09,22,17,02,12.90
2008,09,22,17,03,12.90
2008,09,22,17,04,12.90
2008,09,22,17,05,12.90
2008,09,22,17,06,12.90
2008,09,22,17,07,12.80
2008,09,22,17,08,12.80
2008,09,22,17,09,12.70
2008,09,22,17,10,12.70
2008,09,22,17,11,12.70
2008,09,22,17,12,12.60
2008,09,22,17,13,12.60
2008,09,22,17,14,12.60
2008,09,22,17,15,12.50
2008,09,22,17,16,12.50
2008,09,22,17,17,12.50
2008,09,22,17,18,12.50
2008,09,22,17,19,12.40
2008,09,22,17,20,12.40
2008,09,22,17,21,12.40
2008,09,22,17,22,12.40
2008,09,22,17,23,12.40
2008,09,22,17,24,12.40
2008,09,22,17,25,12.40
2008,09,22,17,26,12.40
2008,09,22,17,27,12.40
2008,09,22,17,28,12.40
2008,09,22,17,29,12.40
2008,09,22,17,30,12.30
2008,09,22,17,31,12.30
2008,09,22,17,32,12.30
2008,09,22,17,33,12.30
2008,09,22,17,34,12.30
2008,09,22,17,35,12.30
2008,09,22,17,36,12.30
2008,09,22,17,37,12.30
2008,09,22,17,38,12.30
2008,09,22,17,39,12.30
2008,09,22,17,40,12.30
2008,09,22,17,41,12.30
2008,09,22,17,42,12.30
2008,09,22,17,43,12.30
2008,09,22,17,44,12.30
2008,09,22,17,45,12.20
2008,09,22,17,46,12.20
2008,09,22,17,47,12.20
2008,09,22,17,48,12.20
2008,09,22,17,49,12.20
2008,09,22,17,50,12.20
2008,09,22,17,51,12.20
2008,09,22,17,52,12.20
2008,09,22,17,53,12.20
2008,09,22,17,54,12.20
2008,09,22,17,55,12.10
2008,09,22,17,56,12.10
2008,09,22,17,57,12.10
2008,09,22,17,58,12.00
2008,09,22,17,59,12.00
2008,09,22,18,00,12.00
2008,09,22,18,01,12.00
2008,09,22,18,02,11.90
2008,09,22,18,03,11.90
2008,09,22,18,04,11.90
2008,09,22,18,05,11.90
2008,09,22,18,06,11.80
2008,09,22,18,07,11.80
2008,09,22,18,08,11.80
2008,09,22,18,09,11.80
2008,09,22,18,10,11.70
2008,09,22,18,11,11.70
2008,09,22,18,12,11.70
2008,09,22,18,13,11.70
2008,09,22,18,14,11.70
2008,09,22,18,15,11.70
2008,09,22,18,16,11.70
2008,09,22,18,17,11.70
2008,09,22,18,18,11.60
2008,09,22,18,19,11.60
2008,09,22,18,20,11.60
2008,09,22,18,21,11.50
2008,09,22,18,22,11.50
2008,09,22,18,23,11.50
2008,09,22,18,24,11.40
2008,09,22,18,25,11.40
2008,09,22,18,26,11.40
2008,09,22,18,27,11.40
2008,09,22,18,28,11.30
2008,09,22,18,29,11.30
2008,09,22,18,30,11.30
2008,09,22,18,31,11.30
2008,09,22,18,32,11.30
2008,09,22,18,33,11.30
2008,09,22,18,34,11.20
2008,09,22,18,35,11.20
2008,09,22,18,36,11.20
2008,09,22,18,37,11.20
2008,09,22,18,38,11.20
2008,09,22,18,39,11.10
2008,09,22,18,40,11.10
2008,09,22,18,41,11.10
2008,09,22,18,42,11.10
2008,09,22,18,43,11.00
2008,09,22,18,44,11.00
2008,09,22,18,45,10.90
2008,09,22,18,46,10.90
2008,09,22,18,47,10.80
2008,09,22,18,48,10.80
2008,09,22,18,49,10.80
2008,09,22,18,50,10.80
2008,09,22,18,51,10.80
2008,09,22,18,52,10.80
2008,09,22,18,53,10.80
2008,09,22,18,54,10.70
2008,09,22,18,55,10.70
2008,09,22,18,56,10.70
2008,09,22,18,57,10.60
2008,09,22,18,58,10.60
2008,09,22,18,59,10.60
2008,09,22,19,00,10.50
2008,09,22,19,01,10.50
2008,09,22,19,02,10.40
2008,09,22,19,03,10.40
2008,09,22,19,04,10.40
2008,09,22,19,05,10.40
2008,09,22,19,06,10.40
2008,09,22,19,07,10.30
2008,09,22,19,08,10.30
2008,09,22,19,09,10.30
2008,09,22,19,10,10.20
2008,09,22,19,11,10.20
2008,09,22,19,12,10.10
2008,09,22,19,13,10.10
2008,09,22,19,14,10.10
2008,09,22,19,15,10.10
2008,09,22,19,16,10.10
2008,09,22,19,17,10.10
2008,09,22,19,18,10.20
2008,09,22,19,19,10.10
2008,09,22,19,20,10.10
2008,09,22,19,21,10.10
2008,09,22,19,22,10.10
2008,09,22,19,23,10.00
2008,09,22,19,24,10.00
2008,09,22,19,25,9.90
2008,09,22,19,26,9.90
2008,09,22,19,27,9.80
2008,09,22,19,28,9.80
2008,09,22,19,29,9.70
2008,09,22,19,30,9.70
2008,09,22,19,31,9.70
2008,09,22,19,32,9.70
2008,09,22,19,33,9.70
2008,09,22,19,34,9.70
2008,09,22,19,35,9.70
2008,09,22,19,36,9.70
2008,09,22,19,37,9.70
2008,09,22,19,38,9.80
2008,09,22,19,39,9.80
2008,09,22,19,40,9.80
2008,09,22,19,41,9.80
2008,09,22,19,42,9.80
2008,09,22,19,43,9.80
2008,09,22,19,44,9.80
2008,09,22,19,45,9.80
2008,09,22,19,46,9.80
2008,09,22,19,47,9.80
2008,09,22,19,48,9.80
2008,09,22,19,49,9.80
2008,09,22,19,50,9.80
2008,09,22,19,51,9.80
2008,09,22,19,52,9.80
2008,09,22,19,53,9.80
2008,09,22,19,54,9.80
2008,09,22,19,55,9.80
2008,09,22,19,56,9.80
2008,09,22,19,57,9.80
2008,09,22,19,58,9.80
2008,09,22,19,59,9.80
2008,09,22,20,00,9.80
2008,09,22,20,01,9.80
2008,09,22,20,02,9.80
2008,09,22,20,03,9.80
2008,09,22,20,04,9.80
2008,09,22,20,05,9.80
2008,09,22,20,06,9.80
2008,09,22,20,07,9.80
2008,09,22,20,08,9.80
2008,09,22,20,09,9.80
2008,09,22,20,10,9.80
2008,09,22,20,11,9.80
2008,09,22,20,12,9.70
2008,09,22,20,13,9.70
2008,09,22,20,14,9.70
2008,09,22,20,15,9.70
2008,09,22,20,16,9.80
2008,09,22,20,17,9.80
2008,09,22,20,18,9.70
2008,09,22,20,19,9.70
2008,09,22,20,20,9.70
2008,09,22,20,21,9.70
2008,09,22,20,22,9.70
2008,09,22,20,23,9.70
2008,09,22,20,24,9.70
2008,09,22,20,25,9.70
2008,09,22,20,26,9.60
2008,09,22,20,27,9.60
2008,09,22,20,28,9.60
2008,09,22,20,29,9.60
2008,09,22,20,30,9.60
2008,09,22,20,31,9.50
2008,09,22,20,32,9.50
2008,09,22,20,33,9.40
2008,09,22,20,34,9.40
2008,09,22,20,35,9.40
2008,09,22,20,36,9.40
2008,09,22,20,37,9.50
2008,09,22,20,38,9.50
2008,09,22,20,39,9.50
2008,09,22,20,40,9.50
2008,09,22,20,41,9.50
2008,09,22,20,42,9.50
2008,09,22,20,43,9.50
2008,09,22,20,44,9.50
2008,09,22,20,45,9.50
2008,09,22,20,46,9.50
2008,09,22,20,47,9.50
2008,09,22,20,48,9.50
2008,09,22,20,49,9.50
2008,09,22,20,50,9.50
2008,09,22,20,51,9.50
2008,09,22,20,52,9.50
2008,09,22,20,53,9.50
2008,09,22,20,54,9.50
2008,09,22,20,55,9.60
2008,09,22,20,56,9.60
2008,09,22,20,57,9.60
2008,09,22,20,58,9.60
2008,09,22,20,59,9.60
2008,09,22,21,00,9.60
2008,09,22,21,01,9.50
2008,09,22,21,02,9.40
2008,09,22,21,03,9.40
2008,09,22,21,04,9.30
2008,09,22,21,05,9.30
2008,09,22,21,06,9.20
2008,09,22,21,07,9.20
2008,09,22,21,08,9.20
2008,09,22,21,09,9.20
2008,09,22,21,10,9.20
2008,09,22,21,11,9.20
2008,09,22,21,12,9.20
2008,09,22,21,13,9.20
2008,09,22,21,14,9.30
2008,09,22,21,15,9.30
2008,09,22,21,16,9.30
2008,09,22,21,17,9.30
2008,09,22,21,18,9.30
2008,09,22,21,19,9.30
2008,09,22,21,20,9.30
2008,09,22,21,21,9.30
2008,09,22,21,22,9.30
2008,09,22,21,23,9.30
2008,09,22,21,24,9.30
2008,09,22,21,25,9.20
2008,09,22,21,26,9.30
2008,09,22,21,27,9.30
2008,09,22,21,28,9.30
2008,09,22,21,29,9.30
2008,09,22,21,30,9.30
2008,09,22,21,31,9.30
2008,09,22,21,32,9.30
2008,09,22,21,33,9.30
2008,09,22,21,34,9.40
2008,09,22,21,35,9.40
2008,09,22,21,36,9.40
2008,09,22,21,37,9.40
2008,09,22,21,38,9.30
2008,09,22,21,39,9.30
2008,09,22,21,40,9.30
2008,09,22,21,41,9.30
2008,09,22,21,42,9.30
2008,09,22,21,43,9.20
2008,09,22,21,44,9.20
2008,09,22,21,45,9.10
2008,09,22,21,46,9.10
2008,09,22,21,47,9.00
2008,09,22,21,48,8.90
2008,09,22,21,49,8.90
2008,09,22,21,50,8.80
2008,09,22,21,51,8.80
2008,09,22,21,52,8.70
2008,09,22,21,53,8.70
2008,09,22,21,54,8.70
2008,09,22,21,55,8.60
2008,09,22,21,56,8.60
2008,09,22,21,57,8.60